Location: Newark
(39.6867°N, 100.6772°W)
Time: 13:41:03
(UTC+00:00)

ISS - Pass Details

Date: 25 September 2019
Orbit: 411 x 421 km, 51.6° (Epoch: 20 October)

Event Time Altitude Azimuth Distance (km) Brightness Sun altitude
Rises 01:27:00 0° 265° (W) 2,338 1.9 -10.5°
Reaches altitude 10° 01:29:23 10° 281° (W) 1,478 0.6 -10.9°
Maximum altitude 01:32:04 22° 335° (NNW) 944 -1.6 -11.4°
Drops below altitude 10° 01:34:49 10° 30° (NNE) 1,497 -1.2 -12.0°
Enters shadow 01:35:57 - 40° (NE) 1,893 -0.7 -12.2°
